Погода в Красине

Россия / Псковская область     57°33′14″N   28°16′34″E
темп.,
°C
ветер,
м/с
пор.,
м/с
влажн.,
%
обл.,
%
осадки,
мм/ч
давл.,
гПа
погр.,
м
14 апреля, ср
ср1400:00+4ссз51087100 0.0 1020437
03:00+3ссз51091100 0.0 1020504
06:00+2ссз51093100 0.0 1019479
09:00+3с4889100 0.0 1020435
12:00+4с4771100 0.0 1021559
15:00+6с3563100 0.0 1022854
18:00+7ссз3557100 0.0 1021578
21:00+5ссв2469100 0.0 102391
15 апреля, чт
чт1500:00+4ссв41067100 0.0 1024398
03:00+3ссв41174100 0.0 1024382
06:00+2ссв31083100 0.0 1025343
09:00+5св6126271 0.0 1026734
12:00+8св684188 0.0 10261114
15:00+10св6938100 0.0 10251466
18:00+9св61046100 0.0 10251293
21:00+7св61255100 0.0 1026781
16 апреля, пт
пт1600:00+6св51261100 0.0 1026780
03:00+5св51170100 0.1 1025644
06:00+4св51174100 0.1 1025570
09:00+4св51273100 0.1 1026552
12:00+7св5106374 0.1 1026724
15:00+11всв7954100 0.1 10261124
18:00+10всв6105689 0.0 1026983
21:00+9всв51252100 0.0 1027843
17 апреля, сб
сб1700:00+8всв51156100 0.0 1027656
03:00+7всв5116288 0.0 1028560
06:00+5всв5127056 0.0 1028423
09:00+7всв51163100 0.0 1029531
12:00+12в5851100 0.0 1029854
15:00+14в6845100 0.0 10291278
18:00+12в5846100 0.0 10301069
21:00+8всв3858100 0.0 1030177
18 апреля, вс
вс1800:00+6всв3106969 0.0 1031229
03:00+4всв397646 0.0 1031191
06:00+3всв38805 0.0 1031170
09:00+8в48575 0.0 1031453
12:00+13вюв57385 0.0 10301432
15:00+15вюв56355 0.0 10291805
18:00+14в46405 0.0 10281821
21:00+9в36615 0.0 102992